| time (UTC) | temp F | wind direction | speed MPH | gust MPH | rain 1hr in | rain 24hr in | rain mn in | humidity % | barometer mb |
| 20260505180037 | 66 | 277 | 3.0 | 8.0 | 0.00 | 0.00 | 0.00 | 59 | 1010.3 |
| 20260505174534 | 65 | 308 | 5.0 | 8.0 | 0.00 | 0.00 | 0.00 | 61 | 1010.3 |
| 20260505173039 | 65 | 270 | 4.0 | 10.0 | 0.00 | 0.00 | 0.00 | 65 | 1010.2 |
| 20260505171533 | 64 | 272 | 4.0 | 9.0 | 0.00 | 0.00 | 0.00 | 64 | 1010.2 |
| 20260505170033 | 64 | 281 | 6.0 | 9.0 | 0.00 | 0.00 | 0.00 | 67 | 1010.1 |
| 20260505164527 | 63 | 286 | 5.0 | 10.0 | 0.00 | 0.00 | 0.00 | 66 | 1010.0 |
| 20260505163026 | 63 | 279 | 5.0 | 8.0 | 0.00 | 0.00 | 0.00 | 66 | 1009.9 |
| 20260505161527 | 63 | 254 | 5.0 | 8.0 | 0.00 | 0.00 | 0.00 | 64 | 1009.9 |
| 20260505153017 | 61 | 229 | 6.0 | 10.0 | 0.00 | 0.00 | 0.00 | 67 | 1009.7 |
| 20260505151511 | 60 | 261 | 5.0 | 7.0 | 0.00 | 0.00 | 0.00 | 68 | 1009.6 |
| 20260505140124 | 58 | 196 | 1.0 | 4.0 | 0.00 | 0.00 | 0.00 | 72 | 1009.0 |
| 20260505124558 | 52 | 137 | 2.0 | 7.0 | 0.00 | 0.00 | 0.00 | 80 | 1008.5 |
| 20260505123048 | 52 | 153 | 3.0 | 4.0 | 0.00 | 0.00 | 0.00 | 79 | 1008.2 |
| 20260505121547 | 53 | 134 | 2.0 | 4.0 | 0.00 | 0.00 | 0.00 | 78 | 1008.1 |
| 20260505120049 | 53 | 184 | 2.0 | 4.0 | 0.00 | 0.00 | 0.00 | 77 | 1008.1 |
| 20260505114544 | 55 | 174 | 2.0 | 5.0 | 0.00 | 0.00 | 0.00 | 75 | 1007.9 |
| 20260505113035 | 55 | 142 | 2.0 | 4.0 | 0.00 | 0.00 | 0.00 | 74 | 1007.8 |
| 20260505111534 | 56 | 198 | 1.0 | 8.0 | 0.00 | 0.00 | 0.00 | 72 | 1007.8 |
| 20260505101528 | 56 | 145 | 2.0 | 4.0 | 0.00 | 0.00 | 0.00 | 72 | 1007.6 |
| 20260505100028 | 56 | 188 | 2.0 | 4.0 | 0.00 | 0.00 | 0.00 | 72 | 1007.6 |
| 20260505094530 | 56 | 195 | 2.0 | 4.0 | 0.00 | 0.00 | 0.00 | 73 | 1007.5 |
| 20260505093024 | 56 | 156 | 2.0 | 4.0 | 0.00 | 0.00 | 0.00 | 73 | 1007.4 |
| 20260505091520 | 56 | 157 | 2.0 | 4.0 | 0.00 | 0.00 | 0.00 | 72 | 1007.2 |
| 20260505090021 | 57 | 132 | 1.0 | 4.0 | 0.00 | 0.00 | 0.00 | 71 | 1007.1 |
| 20260505084532 | 57 | 146 | 2.0 | 4.0 | 0.00 | 0.00 | 0.00 | 70 | 1007.2 |
| 20260505083019 | 57 | 149 | 2.0 | 5.0 | 0.00 | 0.00 | 0.00 | 70 | 1007.1 |
| 20260505081514 | 58 | 209 | 2.0 | 4.0 | 0.00 | 0.00 | 0.00 | 68 | 1007.1 |
| 20260505080015 | 58 | 209 | 3.0 | 7.0 | 0.00 | 0.00 | 0.00 | 67 | 1007.0 |
| 20260505074511 | 58 | 223 | 2.0 | 5.0 | 0.00 | 0.00 | 0.00 | 69 | 1007.0 |
| 20260505073010 | 57 | 180 | 2.0 | 5.0 | 0.00 | 0.00 | 0.00 | 70 | 1006.9 |
| 20260505071508 | 58 | 177 | 2.0 | 6.0 | 0.00 | 0.00 | 0.00 | 70 | 1006.8 |
| 20260505070005 | 59 | 132 | 1.0 | 5.0 | 0.00 | 0.00 | 0.00 | 68 | 1006.7 |
| 20260505064506 | 60 | 227 | 3.0 | 9.0 | 0.00 | 0.00 | 0.00 | 67 | 1006.6 |
| 20260505063006 | 59 | 239 | 3.0 | 7.0 | 0.00 | 0.00 | 0.00 | 68 | 1006.6 |
| 20260505061502 | 59 | 215 | 4.0 | 8.0 | 0.00 | 0.00 | 0.00 | 68 | 1006.7 |
| 20260505060002 | 59 | 225 | 3.0 | 6.0 | 0.00 | 0.00 | 0.00 | 67 | 1006.6 |
| 20260505054611 | 59 | 207 | 4.0 | 6.0 | 0.00 | 0.00 | 0.00 | 67 | 1006.6 |
| 20260505053001 | 60 | 227 | 4.0 | 7.0 | 0.00 | 0.00 | 0.00 | 66 | 1006.5 |
| 20260505051600 | 60 | 234 | 4.0 | 6.0 | 0.00 | 0.00 | 0.00 | 64 | 1006.5 |
| 20260505041600 | 59 | 164 | 3.0 | 4.0 | 0.00 | 0.00 | 0.00 | 61 | 1006.3 |
| 20260505040058 | 56 | 185 | 1.0 | 5.0 | 0.00 | 0.00 | 0.00 | 64 | 1006.1 |
| 20260505034557 | 53 | 83 | 3.0 | 4.0 | 0.00 | 0.00 | 0.00 | 71 | 1005.6 |
| 20260505033057 | 54 | 77 | 3.0 | 4.0 | 0.00 | 0.00 | 0.00 | 71 | 1005.5 |
| 20260505031605 | 55 | 83 | 4.0 | 4.0 | 0.00 | 0.00 | 0.00 | 72 | 1005.4 |
| 20260505030054 | 59 | 83 | 3.0 | 4.0 | 0.00 | 0.00 | 0.00 | 67 | 1005.2 |
| 20260505024602 | 64 | 77 | 2.0 | 3.0 | 0.00 | 0.00 | 0.00 | 59 | 1005.1 |
| 20260505023052 | 71 | 121 | 0.0 | 1.0 | 0.00 | 0.00 | 0.00 | 44 | 1005.1 |
| 20260505021554 | 74 | 47 | 0.0 | 1.0 | 0.00 | 0.00 | 0.00 | 38 | 1005.2 |
| 20260505020051 | 75 | 25 | 0.0 | 3.0 | 0.00 | 0.00 | 0.00 | 35 | 1005.2 |
| 20260505014604 | 75 | 297 | 1.0 | 4.0 | 0.00 | 0.00 | 0.00 | 36 | 1005.2 |
| 20260505013051 | 76 | 329 | 2.0 | 5.0 | 0.00 | 0.00 | 0.00 | 34 | 1005.4 |
| 20260505011556 | 76 | 324 | 3.0 | 10.0 | 0.00 | 0.00 | 0.00 | 31 | 1005.5 |
| 20260505010046 | 77 | 353 | 3.0 | 6.0 | 0.00 | 0.00 | 0.00 | 31 | 1005.6 |
| 20260505004545 | 76 | 355 | 3.0 | 8.0 | 0.00 | 0.00 | 0.00 | 29 | 1005.7 |
| 20260505003044 | 76 | 299 | 2.0 | 8.0 | 0.00 | 0.00 | 0.00 | 32 | 1005.7 |
| 20260505001543 | 76 | 315 | 4.0 | 10.0 | 0.00 | 0.00 | 0.00 | 29 | 1005.7 |
| 20260505000054 | 76 | 311 | 7.0 | 13.0 | 0.00 | 0.00 | 0.00 | 27 | 1005.9 |
| 20260504234547 | 76 | 303 | 2.0 | 7.0 | 0.00 | 0.00 | 0.00 | 30 | 1005.9 |
| 20260504233100 | 76 | 313 | 2.0 | 11.0 | 0.00 | 0.00 | 0.00 | 29 | 1005.9 |
| 20260504231540 | 76 | 315 | 2.0 | 8.0 | 0.00 | 0.00 | 0.00 | 28 | 1006.0 |
| 20260504230038 | 76 | 41 | 3.0 | 8.0 | 0.00 | 0.00 | 0.00 | 30 | 1006.1 |
| 20260504224539 | 76 | 305 | 4.0 | 7.0 | 0.00 | 0.00 | 0.00 | 31 | 1006.3 |
| 20260504223053 | 76 | 58 | 3.0 | 10.0 | 0.00 | 0.00 | 0.00 | 30 | 1006.4 |
| 20260504221536 | 77 | 346 | 4.0 | 10.0 | 0.00 | 0.00 | 0.00 | 30 | 1006.6 |
| 20260504220031 | 76 | 296 | 3.0 | 8.0 | 0.00 | 0.00 | 0.00 | 32 | 1006.7 |
| 20260504214531 | 75 | 346 | 2.0 | 11.0 | 0.00 | 0.00 | 0.00 | 33 | 1006.8 |
| 20260504213040 | 75 | 317 | 5.0 | 12.0 | 0.00 | 0.00 | 0.00 | 30 | 1006.9 |
| 20260504211533 | 75 | 308 | 5.0 | 10.0 | 0.00 | 0.00 | 0.00 | 30 | 1006.9 |
| 20260504210026 | 76 | 305 | 3.0 | 10.0 | 0.00 | 0.00 | 0.00 | 33 | 1007.1 |
| 20260504204535 | 76 | 38 | 4.0 | 7.0 | 0.00 | 0.00 | 0.00 | 29 | 1007.1 |
| 20260504203024 | 76 | 346 | 5.0 | 11.0 | 0.00 | 0.00 | 0.00 | 31 | 1007.3 |
| 20260504201519 | 75 | 296 | 3.0 | 9.0 | 0.00 | 0.00 | 0.00 | 36 | 1007.3 |
| 20260504200016 | 74 | 299 | 3.0 | 10.0 | 0.00 | 0.00 | 0.00 | 39 | 1007.4 |
| 20260504194515 | 74 | 303 | 5.0 | 11.0 | 0.00 | 0.00 | 0.00 | 42 | 1007.5 |
| 20260504193012 | 73 | 288 | 3.0 | 7.0 | 0.00 | 0.00 | 0.00 | 39 | 1007.6 |
| 20260504191511 | 73 | 226 | 4.0 | 8.0 | 0.00 | 0.00 | 0.00 | 40 | 1007.6 |
| 20260504190008 | 72 | 282 | 5.0 | 8.0 | 0.00 | 0.00 | 0.00 | 42 | 1007.8 |
| 20260504184509 | 72 | 294 | 3.0 | 5.0 | 0.00 | 0.00 | 0.00 | 37 | 1007.8 |
| 20260504183007 | 71 | 285 | 3.0 | 7.0 | 0.00 | 0.00 | 0.00 | 43 | 1007.9 |
| 20260504181511 | 71 | 285 | 4.0 | 8.0 | 0.00 | 0.00 | 0.00 | 41 | 1007.9 |